Regional Weather Roundup
Issued by NWS

Home | Current Version | Previous Version | Graphics & Text | Print | Product List | Glossary On
Versions: 1 2 3 4 5 6 7 8 9 10 11 12 13 14 15 16 17 18 19 20 21 22 23 24 25 26 27 28
000
ASUS45 KSLC 232310
RWRUT

UTAH REGIONAL WEATHER ROUNDUP
NATIONAL WEATHER SERVICE SALT LAKE CITY UT
400 PM MST FRI FEB 23 2018

UTZ001>011-023>025-240000-

NORTHERN UTAH

CITY           SKY/WX    TMP DP  RH WIND       PRES   REMARKS
BRIGHAM CITY   CLOUDY    28  19  69 CALM      30.08S
HILL AFB       LGT SNOW  21  19  89 NW12      30.05R VSB 1   WCI  10
LOGAN          LGT SNOW  27  19  72 NE3       30.07R
OGDEN          CLOUDY    24  17  74 NW6       30.06R HAZE    WCI  17
SALT LAKE CITY LGT SNOW  27  20  75 N12       30.09S WCI  17
WENDOVER       SUNNY     34   5  29 N9        30.11R WCI  27
HEBER CITY       N/A     28  14  54 CALM      29.96R
WEST JORDAN    CLOUDY    23  21  93 N10       30.08R WCI  12

$$

UTZ011>015-024>027-240000-

CENTRAL/NORTHEAST UTAH

CITY           SKY/WX    TMP DP  RH WIND       PRES   REMARKS
PROVO AIRPORT  FLURRIES  27  18  69 NW13      30.08R WCI  16
MOAB/CANYONLAN CLOUDY    35  20  54 W18       29.91R WCI  24
DELTA          CLOUDY    27  18  69 N8        30.08R WCI  18
PRICE          MOSUNNY   30  16  56 NW15G22   29.89S WCI  19
RICHFIELD      MOSUNNY   30  10  43 NW13G18   30.00R WCI  20
VERNAL         CLOUDY    27  23  85 SW8       29.89R WCI  19

$$

UTZ013>016-019>022-027-240000-

SOUTHERN UTAH

CITY           SKY/WX    TMP DP  RH WIND       PRES   REMARKS
BRYCE CANYON   PTSUNNY   23  10  57 NW15      29.88R WCI  10
CEDAR CITY     PTSUNNY   27  18  69 N13       29.96R WCI  16
MILFORD        CLOUDY    26  17  68 NE15      30.04R WCI  14
ST GEORGE      MOCLDY    35  33  92 CALM      30.07S
HANKSVILLE     PTSUNNY   36  23  60 SE10      29.95S WCI  28
KANAB          FOG       28  25  86 N6        30.02R VSB 1/2 WCI  22
BLANDING         N/A     28  25  87 SE7       29.99R WCI  21

$$

REGIONAL REPORTS     COLORADO/ARIZONA

CITY           SKY/WX    TMP DP  RH WIND       PRES   REMARKS
CRAIG, CO      CLOUDY    32  11  41 SW14      29.84S WCI  22
GRAND JUNCTION CLOUDY    36  21  54 W5        29.89F WCI  32
RIFLE, CO      CLOUDY    27  24  89 W7        29.90S WCI  19
MONTROSE, CO   CLOUDY    29  20  69 W10       29.93R WCI  20
CORTEZ, CO     PTSUNNY   29  22  75 W18G25    29.92R WCI  16
COLORADO CITY    N/A     32  25  74 NW15G22   30.01R WCI  22
PAGE, AZ       PTSUNNY   39  20  46 S8        29.94S WCI  33
GRAND CANYON   PTSUNNY   27  15  61 SW14G22   29.92S WCI  16
KINGMAN, AZ    PTSUNNY   44  15  31 SW12      30.01S
FLAGSTAFF, AZ  SNOW      22  19  89 VRB3      29.92S VSB 1/4

$$

REGIONAL REPORTS    NEVADA/IDAHO/WYOMING

CITY           SKY/WX    TMP DP  RH WIND       PRES   REMARKS
LAS VEGAS, NV  PTSUNNY   44  28  53 S13       30.06F
ELY, NY        MOSUNNY   23   7  50 N13       30.03R WCI  11
ELKO, NV       SUNNY     29   4  34 W8        30.13R WCI  21
POCATELLO, ID  LGT SNOW  20  13  74 SW23      30.13S WCI   3
BURLEY, ID     SUNNY     23  11  60 W13G22    30.15S WCI  11
EVANSTON, WY   LGT SNOW  15  11  83 SW6       29.91R FOG     WCI   6
ROCK SPRINGS,  SNOW      16  12  84 W15       29.86S VSB 1/2 WCI   1

$$




USA.gov is the U.S. government's official web portal to all federal, state and local government web resources and services.